sat.trackr.live / text

‹ back to catalog

STARLINK-33757

NORAD 63720 · 2025-087Z

PAYLOAD ACTIVE UNKNOWN

§ Identity

Operator
Country
US
Launch date
2025-04-28
Launch site
AFWTR
Launch vehicle
Mass (kg)
RCS (m²)

Purposes: comms

External: N2YO · Heavens-Above · Gunter

§ Orbital elements

Epoch: 2026-09-20T15:13:42.653280Z

Period
93.85 min
Inclination
53.1612°
Eccentricity
0.0001099
Mean motion
15.34397174 rev/d
Perigee alt
462.0 km
Apogee alt
463.5 km
Semi-major
6,840.8 km
B*
5.9097e-4
RAAN
32.8422°
Arg perigee
79.2473°
Mean anomaly
280.8654°
Rev number
7,906

§ Raw data

STARLINK-337571 63720U 25087Z   26263.63452145  .00019641  00000+0  59097-3 0  99922 63720  53.1612  32.8422 0001099  79.2473 280.8654 15.34397174 79069

JSON: /api/v1/satellites/63720 · /tle

For live sub-satellite position, see the globe view (requires WebGL).

§ Visibility from observer

Set your observer location to see the next 7 days of passes ≥ 10°. The values pass through the URL so the page stays shareable.

No JS? Fill the form by hand. The geolocation button needs JavaScript.